This is the latest recevied weather packets stored in our database for station/object KC1OEK-13. If no packets are shown the sender has not sent any weather packets the latest 10 day(s).
| Time | Temp. | Humidity | Pressure | Rain* | Wind** | Luminosity | Snow |
|---|---|---|---|---|---|---|---|
| 1777732784 | 12.22° C | 74% | 1013.1 hPa | 0 mm | - | 292 W/m² | - |
| 1777732481 | 12.22° C | 76% | 1013.2 hPa | 0 mm | - | 344 W/m² | - |
| 1777732178 | 11.67° C | 77% | 1013 hPa | 0 mm | - | 285 W/m² | - |
| 1777731875 | 11.67° C | 75% | 1013.2 hPa | 0 mm | - | 237 W/m² | - |
| 1777731572 | 11.67° C | 78% | 1013.3 hPa | 0 mm | - | 228 W/m² | - |
| 1777731270 | 11.11° C | 79% | 1013.4 hPa | 0 mm | - | 188 W/m² | - |
| 1777730967 | 11.11° C | 78% | 1013 hPa | 0 mm | - | 164 W/m² | - |
| 1777730666 | 11.11° C | 80% | 1013.3 hPa | 0 mm | - | 145 W/m² | - |
| 1777730361 | 11.11° C | 80% | 1013.3 hPa | 0 mm | - | 138 W/m² | - |
| 1777729754 | 10.56° C | 81% | 1013.2 hPa | 0 mm | - | 149 W/m² | - |
| 1777729451 | 11.11° C | 80% | 1013.4 hPa | 0 mm | - | 150 W/m² | - |
| 1777729148 | 11.11° C | 80% | 1013.3 hPa | 0 mm | - | 225 W/m² | - |
| 1777728844 | 10.56° C | 82% | 1013.3 hPa | 0 mm | - | 258 W/m² | - |
| 1777728541 | 10.56° C | 85% | 1013.4 hPa | 0 mm | - | 219 W/m² | - |
| 1777728239 | 10.56° C | 85% | 1013.4 hPa | 0 mm | - | 156 W/m² | - |
| 1777727935 | 10.56° C | 85% | 1013.2 hPa | 0 mm | - | 153 W/m² | - |
| 1777727633 | 10.56° C | 85% | 1013.2 hPa | 0 mm | - | 183 W/m² | - |
| 1777727329 | 10.56° C | 84% | 1013.4 hPa | 0 mm | - | 220 W/m² | - |
| 1777726724 | 10.56° C | 85% | 1013.4 hPa | 0 mm | - | 278 W/m² | - |
| 1777726118 | 10.56° C | 85% | 1013.2 hPa | 0 mm | - | 133 W/m² | - |
| 1777725513 | 10° C | 91% | 1013.4 hPa | 0 mm | - | 341 W/m² | - |
| 1777724907 | 9.44° C | 97% | 1013.4 hPa | 0 mm | - | 334 W/m² | - |
| 1777724301 | 9.44° C | 99% | 1013.7 hPa | 0 mm | - | 150 W/m² | - |
| 1777723391 | 8.33° C | 99% | 1013.8 hPa | 0 mm | - | 104 W/m² | - |
| 1777723089 | 8.33° C | 99% | 1013.7 hPa | 0 mm | - | 69 W/m² | - |
* Rain latest hour (hover to see other rain measurements)
** Current wind speed in m/s (hover to see current wind gust speed)